[Date Prev][Date Next][Thread Prev][Thread Next][Date Index][Thread Index]

[jamsat-news:1743] jas2info #289



========================   最新情報   ==============================

        Last updated  07Sep2002  19:10(JST)   #289

====================================================================
   
1)アマチュア通信衛星情報、FOシリーズの軌道要素、テレメトリ、QSOの
   状況等をまとめてみました.
   
 FO−29の2002年9月7日(土)の16:26(JST)のパスでは
JARLのホームページのとうりアナログ運用でした。 今日までの観測した
テレメトリーと最終行の分析結果を報告しておきます。

AS29910C  07Sep2002
16:26-16:44(JST)
AOS   MEL  LOS  Elev
 23    94  167  34.0
Freq. 435.804-.787Hz
(JAS-2 No.107 B 3460-3880END  No.108 A 0-440)

HI HI AE 07 88 55 00 D4 35 30 07 4B 42 82 69 52 8C 89 95 7E 8A 8D 8D 88 82 
HI HI AE 07 88 55 00 D4 35 30 07 4B 44 82 6B 51 8D 89 96 7D 8A 8D 8D 88 82 
HI HI AE 07 88 55 00 D4 35 30 06 4B 46 85 6E 50 90 8E 97 85 8A 8D 8D 88 82 
HI HI AE 07 88 55 00 D4 35 30 09 4B 48 87 70 4F 90 8E 99 8E 8A 8D 8D 88 82 
HI HI AE 07 88 55 00 D4 35 30 09 4B 4B 89 71 4F 92 8E 99 87 8A 8D 8D 88 82 
HI HI AE 07 88 55 00 D4 35 30 09 4B 4E 8A 72 4E 92 8D 9B 91 8A 8E 8D 89 82 
HI HI AE 07 88 55 00 D4 35 30 09 4B 4F 8D 72 4E 92 8E 9B 93 8A 8D 8D 89 82 
HI HI AE 07 88 55 00 D4 35 30 09 4B 51 8E 73 4C 91 8D 9B 80 8A 8D 8D 89 82 
HI HI AE 07 88 55 00 D4 35 30 09 4B 53 8F 75 4B 91 8D 9B 6B 8A 8D 8D 89 82 
HI HI AE 07 88 55 00 D4 35 30 09 4B 55 8F 77 4C 91 8E 9B 6F 8A 8D 8D 89 82 
HI HI AE C7 88 55 00 D4 35 30 09 4B 56 8F 7E 4D 92 8E 9B 67 8B 8D 8D 89 83 
HI HI AE 07 88 55 00 D4 35 30 09 4B 57 8F 78 4F 93 8E B0 57 8B 8D 8D 89 83
HI HI AE 07 88 55 00 D4 35 30 09 4B 59 8D 77 5E 90 8C 9A 6F 8B 8D 8D 89 82 
HI HI AE 07 88 55 00 D4 35 30 09 4B 59 8F 79 4A 91 8E 9B 7A 8B 8D 8D 8A 82 
HI HI AE C7 88 55 00 D4 35 30 09 4B 5B 8E 79 4A 92 8E 9B 66 8B 8D 8D 8A 83 
HI HI AE 07 88 55 00 D4 35 30 09 4B 5E 8E 7A 4A 92 8E 9C 77 8B 8D 8D 8A 82 
HI HI AE C7 88 55 00 D4 35 30 09 4B 5E 8B 7A 4B 92 8E 9C 82 8B 8C 8D 8A 82 
HI HI AE 07 88 55 00 D4 35 30 09 4B 5F 89 78 5E 91 8D B0 83 8C 8C 8D 6B 83 
HI HI AE 07 88 55 00 D4 35 30 09 4B 60 88 7A 49 92 8E 9B 78 8C 8C 8D 8B 83 
HI HI AE C7 88 55 00 D4 35 30 09 4B 60 85 7A 4A 92 8D B0 78 8C 8C 8D 8B 83 
HI HI AE 07 88 55 00 D4 35 30 09 4B 61 83 79 4A 81 8E 7B 6E 8C 8C 8D 8B 83 

AS29857C  03Sep2002
18:23-18:38(JST)
AOS   MEL  LOS  Elev
  3   292  220  38.6
Freq. 435.803-.787Hz
(JAS-2 No.107 B 2840-3460)

HI HI AE 07 88 55 00 D4 00 00 09 00 9A 95 66 57 90 8C 99 8F 8C 8E 8F 8B 85 
HI HI AE 07 88 55 00 D4 00 00 09 00 9D 97 64 55 8F 8C 98 66 8C 8E 8F 8B 85 
HI HI AE 07 88 55 00 D4 00 00 09 00 98 9B 69 53 8F 8C 99 76 8C 8F 8R 8B 85 
HI HI AE 07 88 55 00 D4 00 00 09 00 95 9F 68 52 90 8C 99 5D 8C 8F 8F 8B 85 
HI HI AE 07 88 55 00 D4 00 00 09 00 90 A3 68 53 90 8F 99 60 8C 8F 8F 8B 85 
HI HI AE 07 88 55 00 D4 00 00 09 00 8A A6 66 55 90 8B 99 7B 8C 8F 8F 8B 85 
HI Hi AE 07 88 55 00 D4 00 00 09 00 73 A9 68 54 90 8C 99 98 8D 8F 8F 8A 85 
HI HI AE 07 88 55 00 D4 00 00 09 00 5D A5 6B 5E 91 90 9F 72 8C 8F 8F 8A 85 
HI HI AE 07 88 55 00 D4 00 00 09 00 66 AC 6B 5F 91 8D 9E 59 8D 8F 8F 8A 85 
HI HI AE 07 88 55 00 D4 00 00 09 00             91 8D 9B 54 8D 8F 8F 8A 85 
HI HI AE 07 88 55 00 D4 00 00 09 00 68 AB 6D 5E 96 8E 9B 8F 8D 8F 8F 8A 85 
HI HI AE 07 88 55 00 D4 00 00 09 00 61 A9 6C 50 95 8E B0 8E 8D 90 8F 8A 85 
HI HI AE 07 88 55 00 D4 00 00 09 00 5B A6 70 4F 93 8E B0 8B 8D 90 8F 8A 85 
HI HI AE 07 88 55 00 D4 00 00 09 00 55 A2 74 4D 92 8E B0 68 8D 90 8F 8A 85 
Hi HI AE 07 88 55 00 D4 00 00 09 00 50 9C 77 4B 91 8E 9B 75 8C 90 8F 8A 85 
HI HI AE C7 88 55 00 D4 00 00 09 00 4C 99 7A 49 92 8D B0 67 8D 90 8F 8A 85 
HI HI AE 07 88 55 00 D4 00 00 09 00 48 94 7B 59 94 8F 9C 5B 8D 90 90 8B 85 
HI HI AE 07 88 55 00 D4 00 00 09 00 45 8E 7C 49 95 8E 9C 80 8C 90 99 6B 85 
HI HI AE 07 8S S5 00 D4 00 00 09 00 43 88 7C 48 91 8E 9B 7E 8C 90 90 8B 85 
HI HI AE 07 88 55 00 D4 00 00 09 00 41 83 7B 5E 90 8

AS29844C  02Sep2002
19:18-19:30(JST)
AOS   MEL  LOS  Elev
353   301  247  15.8
Freq. 435.800-.789Hz
(JAS-2 No.107 B  2340-2840)

HI HI AE 07 88 55 00 D4 16 43 09 41 3F 38 79 4B 93 8F 9C 7B 8E 8E 8E 8C 85 
HI HI AE 07 88 55 00 D4 16 43 09 41 45 34 78 4A 93 8E 9C 72 8E 8E 8E 8C 85 
HI HI AE 07 78 55 00 D4 16 43 09 41 4E 41 77 4B 93 8F 9C 6C 8E 8E 8E 8C 85 
HI HI AE 07 88 55 00 D4 16 43 09 41 53 3F 74 4D 92 8E 9B 70 8E 8E 8D 8C 85 
HI HI AE 07 88 55 00 D4 16 43 09 41 5B 2D 71 53 91 8D 9A 8A 8E 8E 8D 8C 85 
HI HI AE 07 88 55 00 D4 16 43 09 41 62 2D 70 4F 91 8C 9A 81 8E 8E 8D 8C 84 
HI HI AE 07 88 55 00 D4 16 43 09 41 69 2E 6C 51 90 8C 99 7D 8E 8E 8D 8C 84 
HI HI AE 07 88 55 00 D4 16 43 09 41 70 30 6B 52 8F 8C 99 84 8E 8E 8D 8C 84 
HI HI AE 07 88 55 00 D4 16 43 09 41 76 33 6A 52 8F 8B 98 78 8E 8E 8D 8C 84 
HI HI AE 07 88 55 00 D4 16 43 09 41 7B 36 6A 52 8F 8B 98 71 8E 8E 8D 8C 84 
HI HI AE 07 88 55 00 D4 16 43 09 41 80 3A 67 52 8E 8A 97 7E 8E 8E 8D 8C 84 
HI HI AE 07 88 55 00 D4 16 43 09 41 83 3C 67 52 8E 8A 97 7C 8F 8E 8D 8C 84

AS29789C  29Aug2002
17:38-17:58(JST)
AOS   MEL  LOS  Elev
 10   287  199  78.3
Freq. 435.804-.786Hz
(JAS-2 No.107 B  1310-2340)

HI HI AE 07 88 55 00 D4 0B 05 09 7A 65 B8 68 53 8A 87 94 72 8C 87 90 90 85 
HI HI AE 07 88 55 00 D4 0B 05 09 7A 5F B6 6A 52 8C 88 95 71 8C 87 8F 90 85 
HI HI AE 07 88 55 00 D4 0B 05 09 7A 58 B1 6C 51 8D 8A 97 71 8C 87 8F 90 85 
HI HI AE 07 88 55 00 D4 0B 05 09 7A 52 AC 6E 4F 8F 8B 98 7C 8C 87 8F 91 85 
HI HI AE 07 88 55 00 D4 0B 05 09 7A 4C A7 70 50 90 8C 9A 7C 8C 87 8F 91 85 
HI HI AE 07 88 55 00 D4 0B 05 09 7A 47 A0 70 50 91 8D 9A 7B 8C 86 8F 91 85 
HI HI AE 07 88 55 00 D4 0B 05 09 7A 42 99 71 4F 91 8D 9A 77 8C 86 8F 91 85 
HI HI AE 07 88 55 00 D4 0B 05 09 7A 3E 92 71 4F 91 8D 9A 79 8C 86 90 91 85 
HI HI AE 07 88 55 00 D4 0B 05 09 7A 3B 8B 72 4F 91 8D 9A 75 8C 86 90 91 85 
HI HI AE 07 88 55 00 D4 0B 05 09 7A 39 84 72 51 91 8D 9A 77 8C 86 8F 91 85 
HI HI AE 07 88 55 00 D4 0B 05 09 7A 37 7D 63 4E 91 8D 9A 71 8C 86 8F 91 85 
HI HI AE 07 88 55 00 D4 0B 05 09 7A 36 77 71 4E 91 8D 9A 70 8C 86 8F 91 84 
HI HI AE 07 88 55 00 D4 0B 05 09 7I 36 72 6F 50 90 8C 99 7B 8C 86 8F 91 85 
HI HI AE 07 88 55 00 D4 0B 05 09 7A 37 6E 6D 51 98 8C 99 75 8C 86 8F 91 84 
HI HI AE 07 88 55 00 D4 0B 05 09 7A 38 6B 6A 53 8F 8B 98 77 8C 86 8F 91 84 
HI HI AE 07 88 55 00 D4 0B 05 09 7A 39 6A 68 53 8E 8A 97 74 8C 86 8F 91 84 
HI HI AE 07 88 55 00 D4 0B 05 09 7A 3B 69 63 56 8D 89 96 82 8C 86 8F 91 84 
HI HI AE 07 88 55 00 D4 0B 05 09 7A 3E 6A 62 57 8C 89 95 8B 8C 86 8F 91 84 
HI HI AE 07 88 55 00 D4 0B 05 09 7A 40 6C 61 57 8B 88 95 7D 8C 85 8F 91 84 
HI HI AE 07 88 55 00 D4 0B 05 09 7A 45 6E 63 56 8B 88 95 83 8C 86 8F 91 84 
HI HI AE 07 88 55 00 D4 0B 05 09 7A 47 74 65 55 8C 88 95 83 8C 86 8F 91 84 
HI Hi AE 07 88 55 00 D4 0B 05 09 7A 4A 79 B9 52 8D 89 96 7E 8C 86 8F 91 84 
HI HI AE 07 88 55 00 D4 0B 05 09 7A 4E 7E 6E 51 8E 8A 97 89 8C 86 8F 91 85 
HI HI AE 07 88 55 00 D4 0B 05 09 7A 52 85 73 4E 90 8C 9A 85 8C 86 8F 91 84 
HI HI AE 07 88 55 00 D4 0B 05 09 7A 57 8B 75 4E 92 8E 9B 8E 8C 86 8F 91 85 

     
------------------------ FO-29の軌道要素 ------------------------------        
 
  ■ 軌道要素1:「jamsat−keps:1237」より         
          SB KEPS @ AMSAT  $ORB02242.N
          2Line Orbital Elements 02242.AMSAT

HR AMSAT ORBITAL ELEMENTS FOR AMATEUR SATELLITES IN NASA FORMAT
FROM WA5QGD FORT WORTH,TX August 30, 2002
SEND SUBSCRIBE/UNSUBSCRIBE TO majordomo@amsat.org ONLY
BID: ORB02242.N

 DECODE 2-LINE ELSETS WITH THE FOLLOWING KEY:
 1 AAAAAU 00  0  0 BBBBB.BBBBBBBB  .CCCCCCCC  00000-0  00000-0 0  DDDZ
 2 AAAAA EEE.EEEE FFF.FFFF GGGGGGG HHH.HHHH III.IIII JJ.JJJJJJJJKKKKKZ
 KEY: A-CATALOGNUM B-EPOCHTIME C-DECAY D-ELSETNUM E-INCLINATION F-RAAN
 G-ECCENTRICITY H-ARGPERIGEE I-MNANOM J-MNMOTION K-ORBITNUM Z-CHECKSUM

FO-29
1 24278U 96046B   02240.89100701  .00000007  00000-0  46129-4 0 05227
2 24278 098.5177 050.8593 0350438 306.9228 050.0286 13.52848418297828

 ■ 軌道要素2:「jamsat−keps:1238」より 
       SB KEPS @ AMSAT  $ORB02242.O
       Orbital Elements  02242.OSCAR

HR AMSAT ORBITAL ELEMENTS FOR OSCAR SATELLITES
FROM WA5QGD FORT WORTH,TX August 30, 2002
SEND SUBSCRIBE/UNSUBSCRIBE TO majordomo@amsat.org ONLY
BID: ORB02242.O
TO ALL RADIO AMATEURS BT

Satellite: FO-29
Catalog number: 24278
Epoch time:      02240.89100701
Element set:    0522
Inclination:      098.5177 deg
RA of node:       050.8593 deg
Eccentricity:    0.0350438
Arg of perigee:   306.9228 deg
Mean anomaly:     050.0286 deg
Mean motion:   13.52848418 rev/day
Decay rate:        7.0e-08 rev/day^2
Epoch rev:           29782
Checksum:              309

-------------------  FO-29(JAS-2)のテレメトリに関する情報  ---------------------- 
 
2)本日のハムフェアにおける衛星受信実演協力(熊本より)のため上記2002年
 9月7日(土)のテレメトリの16:26のパスののパスの最終行を分析して
 おきます。

AS29910C  07Sep2002
16:26-16:44(JST)
AOS   MEL  LOS  Elev
 23    94  167  34.0
Freq. 435.804-.787Hz
(JAS-2 No.107 B 3460-3880END  No.108 A 0-440)

HI HI AE 07 88 55 00 D4 35 30 09 4B 61 83 79 4A 81 8E 7B 6E 8C 8C 8D 8B 83 

テレメトリ   内 容         換算算値 単 位
3C	磁気センサーZ軸=	47549.0	[nT]
3D	磁気センサX軸	=	64215.7	[nT]
4A	太陽電池発生電流=	1186.3	[mA]
4B	B充放電電流	=	-549.6	[mA]
4C	B端子電圧	=	  13.9	[V]
4D	B中間端子電圧	=	   6.8	[V]
5A	バス電圧	=	  12.1	[V]
5B	JTA送信電力	=     	 616.9	[mW]
5C 	構体温度1	=	  27.5	[℃]
5D	構体温度2	=	  27.5	[℃]
6A	構体温度3	=	  27.1	[℃]
6B	構体温度4	=	  27.9	[℃]
6C	Bセル温度	=	  31.0	[℃]

 ========================== FO-29(ふじ3号)のテレメトリ分析、QSO情報等 =====================
   
 3)[jamsat-bb:

 =================================================================================================
 
 4)JARL のホームページに運用予定が記載されていましたのでご紹介します.
       ( http://www.jarl.or.jp/Japanese/3_Fuji/new/uy.htm )
       
        *** 運用予定について ***

   4月01日(月) 〜 6月30日(日)アナログ系運用 

  *なお,運用予定は都合により,変更することがありますので,あらかじめご了承願います。

 照会先 : lab@jarl.or.jp

 最新の情報はテレホンサービス(03−3942−1000)をお聞きください。  
 以後の運用につきましては平成14年7月上旬にお知らせいたします。        
     
-----------------------    FO−20(JAS-1b)道要素   -------------------------
  
  ■ 軌道要素1 :出典はFO-29「ふじ3号」に同じ.
  
FO-20
1 20480U 90013C   02240.92782897  .00000017  00000-0  10537-3 0 04360
2 20480 099.0213 231.5135 0540881 037.3231 326.4214 12.83320561588245
 
  ■ 軌道要素2 :出典はFO−29「ふじ3号」に同じ.
               
